User: anonymous   Login
Location: PFO Observatory
(45.2937°N, 66.0991°W)
Time: 01:22:21
(UTC-03:00)
Language:

Cosmos 1151 Rocket - Orbit

View from above orbital plane
View from above orbital plane
View from above satellite
View from above satellite

Ground track
Ground track

The orbit data is extracted from the following two-line orbital elements,

1 11672U 80005B   15188.61863456  .00000348  00000-0  35464-4 0  9993
2 11672 082.5145 029.9407 0017570 151.0621 209.1574 14.87621927917744
Epoch (UTC): 07 July 2015 14:50:50
Eccentricity: 0.0017570
inclination: 82.5145°
perigee height: 593 km
apogee height: 617 km
right ascension of ascending node: 29.9407°
argument of perigee: 151.0621°
revolutions per day: 14.87621927
mean anomaly at epoch: 209.1574°
orbit number at epoch: 91774

The dashed part of the orbit path shows where the satellite is in the earth's shadow,  

DLR